Regional Weather Roundup
Issued by NWS Albany, NY

Current Version | Previous Version | Text Only | Print | Product List | Glossary On
Versions: 1 2 3 4 5 6 7 8 9 10 11 12 13 14 15 16 17 18 19 20 21 22 23 24 25 26 27 28 29 30 31 32 33 34 35 36 37 38 39 40 41 42 43 44 45 46 47 48 49 50
291 ASUS41 KALY 050310 RWRALY NEW YORK STATE HOURLY WEATHER ROUNDUP NATIONAL WEATHER SERVICE ALBANY NY 1100 PM EDT WED MAY 04 2016 NOTE: "FAIR" INDICATES FEW OR NO CLOUDS BELOW 12,000 FEET WITH NO SIGNIFICANT WEATHER AND/OR NO OBSTRUCTIONS TO VISIBILITY. NYZ032-033-038>043-046>054-057>066-NYZ062>081-082-084-050400- EAST CITY SKY/WX TMP DP RH WIND PRES REMARKS ALBANY CLOUDY 48 42 80 N3 29.80F GLENS FALLS CLOUDY 48 43 82 N5 29.81F POUGHKEEPSIE CLOUDY 49 43 80 N5 29.77F NEWBURGH MOCLDY 46 45 93 NE9 29.78S MONTGOMERY CLOUDY 47 44 90 NE7 29.76F WHITE PLAINS CLOUDY 47 42 83 NE6 29.74F ISLIP CLOUDY 46 42 86 N13 29.73F NEW YORK CITY CLOUDY 50 45 83 NE14 29.74F CENTRAL PARK CLOUDY 49 41 74 NE8G17 29.77F $$ NYZ005>009-017-018-044>046-055-056-050400- CENTRAL CITY SKY/WX TMP DP RH WIND PRES REMARKS FULTON CLEAR 52 44 74 E6 29.76S SYRACUSE PTCLDY 48 44 86 E9 29.76R ROME CLOUDY 50 44 80 SE10 29.79F ELMIRA CLOUDY 53 44 71 E6 29.73S BINGHAMTON CLOUDY 46 45 96 SE5 29.74S FOG MONTICELLO CLOUDY 43 41 93 E10 29.77S $$ NYZ026>034-041>043-087-050400- NORTH CITY SKY/WX TMP DP RH WIND PRES REMARKS WATERTOWN FOG 49 48 97 SW3 29.77S VSB 1/4 FORT DRUM NOT AVBL MASSENA CLOUDY 50 45 83 NE6 29.82S SARANAC LAKE CLOUDY 44 41 89 E3 29.78F PLATTSBURGH CLOUDY 46 44 93 CALM 29.83F $$ NYZ001>004-010>016-019>021-085-050400- WEST CITY SKY/WX TMP DP RH WIND PRES REMARKS NIAGARA FALLS PTCLDY 51 42 71 E7 29.73R BUFFALO CLOUDY 53 43 68 NE9 29.72S DUNKIRK CLOUDY 53 45 74 NE8 29.70S JAMESTOWN CLOUDY 52 43 71 E6 29.69R WELLSVILLE CLOUDY 50 45 83 CALM 29.73R ROCHESTER CLOUDY 53 48 83 NE7 29.73S PENN YAN CLOUDY 52 50 93 CALM 29.74S $$ KEY WCI = WIND CHILL INDEX VSB = VISIBILITY HX = HEAT INDEX $$

USA.gov is the U.S. government's official web portal to all federal, state and local government web resources and services.